www.pogodaiklimat.ru

Погода и климат >> Архив погоды >> Россия >> Краснодарский край >> Сочи аэропорт (Адлер)


ПОГОДА в Сочи аэропорту (Адлер)

  • Прогноз погоды в Сочи аэропорту (Адлер)
  • Монитор погоды в Сочи аэропорту (Адлер)
  • Климат города

АРХИВ ПОГОДЫ в Сочи аэропорту (Адлер)

Время (UTC), дата Ветер
(напр.,м/с)
 
Видим.   Явления Облачность Т
(С)
Тd
(С)
f
(%)
Тe
(С)
Тes
(С)
Комфортность P
(гПа)
Po
(гПа)
Тmin
(С)
Tmax
(С)
R
(мм)
R24
(мм)
S
(см)
18 12.10 В 4 4000 м 6/6 1500 м
[Sc]
+13.7 +9.8 77 +12 +12 1024.2 1022.4
21 12.10 СВ 3 4000 м 3/0
[Ac trans]
+12.1 +9.5 84 +10 +10 1024.2 1022.4
00 13.10 В 3 4000 м ясно +10.9 +9.0 88 +9 +9 1024.0 1022.2
03 13.10 В 5 4000 м ясно +10.5 +7.8 83 +8 +8 1023.7 1021.9 +10.5
06 13.10 СВ 5 20 км 1/1 1000 м
[Cu hum]
+14.3 +8.1 66 +13 +14 1024.0 1022.2
09 13.10 З 3 20 км 1/1 1000 м
[Cu hum]
+19.2 +8.0 48 +20 +26 1022.2 1021.3
12 13.10 ЮЗ 4 20 км 1/1 1000 м
[Cu hum]
+18.8 +10.3 58 +19 +22 1021.8 1020.0
15 13.10 З 3 20 км ясно +16.5 +10.3 67 +16 +16 1020.9 1019.1 +19.7
18 13.10 СВ 3 4000 м ясно +12.4 +10.0 85 +11 +11 1020.8 1019.0
21 13.10 СВ 4 4000 м 4/0
[]
+10.9 +9.0 88 +8 +8 1020.0 1018.2
00 14.10 СВ 4 4000 м 10/0
[Ac und]
+12.3 +8.5 78 +10 +10 1019.0 1017.2
03 14.10 В 6 4000 м 9/0
[Ac trans Ci fib]
+12.3 +7.4 72 +10 +10 1018.3 1016.5 +10.9
06 14.10 В 4 20 км 10/3 1000 м
[Cb cap Ac und]
+13.9 +8.1 68 +13 +13 1018.5 1016.7
09 14.10 СВ 3 4000 м слабый ливневой дождь 10/10 800 м
[Cb cap]
+13.9 +13.0 94 +13 +13 1019.1 1017.3
12 14.10 СВ 4 20 км {ливн. осадки} 10/3 1000 м
[Cb cap Ac trans Ci fib]
+16.2 +12.2 77 +15 +16 1017.5 1015.7
15 14.10 ЮВ 4 4000 м слабый ливневой дождь 10/6 1500 м
[Cb cap Ac und]
+16.6 +9.8 64 +16 +16 1017.8 1016.0 +17.7 16
18 14.10 В 3 4000 м слабый ливневой дождь, в посл. час гроза 10/10 720 м
[Cb cap]
+12.5 +12.0 97 +11 +11 1018.0 1016.2
21 14.10 В 3 4000 м {ливн. осадки} 10/4 900 м
[Cb cap Ac und]
+12.0 +10.9 93 +10 +10 1018.6 1016.8
00 15.10 СВ 4 4000 м в посл. час ливневой дождь 9/9 900 м
[Cb cap]
+11.3 +10.7 96 +9 +9 1018.6 1016.8
03 15.10 В 4 4000 м слабый ливневой дождь 10/10 1230 м
[Cb cap]
+10.9 +10.7 99 +8 +8 1018.5 1016.7 +10.9 44
06 15.10 штиль 0 10 км слабый ливневой дождь 10/10 1230 м
[Cb cap]
+11.7 +11.0 95 +11 +11 1020.0 1018.2
09 15.10 З 2 10 км {ливн. осадки} 10/3 1000 м
[Cb cap Ac und]
+14.9 +10.5 75 +15 +16 1021.0 1019.2
12 15.10 З 3 20 км {ливн. осадки} 10/8 1500 м
[Cb cap Ci fib]
+15.9 +9.3 65 +15 +16 1021.4 1019.6
15 15.10 С 1 4000 м 10/3 1500 м
[Sc Ac und]
+13.9 +9.2 73 +14 +14 1022.0 1020.2 +16.9 4
18 15.10 С 3 4000 м в посл. час ливневой дождь 10/10 1500 м
[Cu Sc]
+12.1 +10.4 89 +10 +10 1021.4 1019.6
21 15.10 СВ 5 4000 м слабый ливневой дождь 10/10 1000 м
[Cb cap]
+11.1 +10.3 95 +8 +8 1019.9 1018.1
00 16.10 СВ 4 4000 м слабый ливневой дождь 10/10 660 м
[Cb cap]
+10.7 +10.5 99 +8 +8 1015.2 1013.4
03 16.10 З 8-15
{16}
1000 м ливневой дождь 10/10 240 м
[Cb cap]
+16.0 +15.3 96 +14 +14 1011.9 1010.1 +10.4 49
06 16.10 СЗ 4
{15}
20 км {ливн. осадки} 3/0
[Ac trans Ci fib]
+14.8 +10.5 75 +14 +15 1011.3 1009.5
09 16.10 З 13-18
{19}
20 км 1/1 1500 м
[Cu med, cong]
+16.6 +4.5 45 +15 +15 1012.1 1010.3
12 16.10 З 10-16
{20}
20 км 1/1 1500 м
[Cu hum]
+15.8 +4.3 46 +14 +14 1014.4 1012.6
15 16.10 З 12-18
{20}
4000 м 3/1 1000 м
[Sc Ci fib]
+13.7 +2.1 45 +11 +11 1017.3 1015.5 +17.4 3
18 16.10 СЗ 8-12
{20}
4000 м 8/0
[Ci fib]
+12.0 +3.8 57 +9 +9 1019.8 1018.0
21 16.10 СЗ 7-11
{16}
4000 м ясно +11.8 +2.1 51 +9 +9 1021.5 1019.7
00 17.10 СЗ 5
{16}
4000 м 5/0
[Ac trans]
+12.0 +4.3 59 +10 +10 1022.7 1020.9
03 17.10 СВ 4
{13}
4000 м 4/0
[Ac trans]
+8.9 +4.1 72 +6 +6 1024.1 1022.3 +8.0
06 17.10 В 4 20 км 10/0
[Ac und]
+10.3 +4.8 69 +8 +8 1025.3 1023.5
09 17.10 СЗ 2 20 км 10/6 1320 м
[Cb cap Ac und]
+13.7 +6.8 63 +13 +14 1025.5 1023.7
12 17.10 С 1 20 км слабый ливневой дождь 10/10 1200 м
[Cb cap]
+14.3 +10.7 79 +15 +15 1025.6 1023.8
15 17.10 СВ 1 4000 м {ливн. осадки} 9/9 1500 м
[Sc]
+14.1 +10.9 81 +14 +14 1025.9 1024.1 +15.2 0.0
18 17.10 СВ 2 4000 м {ливн. осадки} 6/0
[Ac trans]
+11.6 +8.4 81 +10 +10 1026.1 1024.3
21 17.10 В 2 4000 м 3/0
[Ac trans]
+9.7 +7.8 88 +8 +8 1026.5 1024.7
00 18.10 В 4 4000 м 3/0
[Ac trans]
+10.7 +7.6 81 +8 +8 1026.6 1024.8
03 18.10 В 4 4000 м 9/0
[Ac trans]
+11.4 +8.5 82 +9 +9 1025.9 1024.1 +9.3
06 18.10 В 4 20 км 9/1 1500 м
[Sc Ci fib]
+13.9 +9.0 72 +12 +14 1025.9 1024.1
09 18.10 ЮВ 2 20 км 9/9 1500 м
[Sc]
+16.8 +11.1 69 +17 +18 1025.5 1023.7
12 18.10 В 2 10 км 10/10 1320 м
[Sc]
+16.2 +12.0 76 +16 +16 1024.7 1022.9
15 18.10 В 2 4000 м 10/3 1500 м
[Sc Ci fib]
+14.7 +12.5 87 +14 +14 1024.1 1022.3 +17.2
18 18.10 СВ 3 4000 м 10/0
[Ci fib]
+11.5 +10.5 94 +10 +10 1024.2 1022.4
21 18.10 В 2 4000 м 10/0
[Ci fib]
+10.0 +9.4 96 +8 +8 1023.6 1021.8
00 19.10 В 1 4000 м 10/0
[Ci fib]
+10.3 +9.3 94 +10 +10 1022.9 1021.1
03 19.10 СВ 5 4000 м 10/0
[Ci fib]
+11.0 +8.5 85 +8 +8 1022.4 1020.6 +9.8
06 19.10 СВ 5 20 км 5/0
[Ci fib]
+13.8 +8.6 71 +12 +13 1022.3 1020.5
09 19.10 З 1 20 км ясно +20.6 +11.2 55 +24 +32 комфорт 1021.4 1019.6
12 19.10 З 4 20 км ясно +19.9 +9.7 52 +21 +24 комфорт 1020.3 1018.5
15 19.10 штиль 0 4000 м ясно +15.9 +11.4 75 +16 +16 1019.4 1017.6 +21.2

 

Местоположение метеостанции Сочи аэропорт (Адлер) (Краснодарский край, Россия): широта 43.43 долгота 39.90 высота над уровнем моря 15 м.

В архиве по умолчанию представлена погода в Сочи аэропорту (Адлер) за последнюю неделю. Архивные данные за месяц целиком и за предыдущие месяцы, начиная с января 2011 года, Вы можете получить, выбрав интересующий диапазон дат из раскрывающегося списка и нажав кнопку "Ввод!".

Внимание! Время в таблицах - всемирное. Для получения местного времени необходимо прибавить поправку, которая в Сочи аэропорту (Адлер) равна 3 ч.

Смотрите также архив погоды в соседних городах и на ближайших метеорологических станциях:

Погода в Сочи (Краснодарский край, Россия) (20 км)
Погода в Кепше (Краснодарский край, Россия) (24 км)
Погода в Красной Поляне (Краснодарский край, Россия) (37 км)
Погода в Гузерипле (Адыгея, Россия) (66 км)
Погода в Туапсе (Краснодарский край, Россия) (100 км)
Погода в Псебае (Краснодарский край, Россия) (105 км)
Погода в Горном (Краснодарский край, Россия) (107 км)
Погода в Шунтуке (Адыгея, Россия) (117 км)
Погода в Майкопе (Адыгея, Россия) (133 км)
Погода в Джубге (Краснодарский край, Россия) (138 км)

Пояснения к столбцам:

Ветер - указаны скорость ветра в м/с - средняя за 10 мин, порывы в срок и между сроками (в фигурных скобках) и направление, откуда дует ветер: С - северный, СВ - северо-восточный, В - восточный, ЮВ - юго-восточный, Ю - южный, ЮЗ - юго-западный, З - западный, СЗ - северо-западный.
Видимость - горизонтальная дальность видимости в метрах или километрах. При видимости от 1 до 10 км при отсутствии осадков обычно наблюдается дымка, при ухудшении видимости до 1 км и менее - туман. В сухую погоду видимость может ухудшаться дымом, пылью или мглою.
Явления - указаны атмосферные явления, наблюдавшиеся в срок или в последний час перед сроком; фигурными скобками обозначены явления, наблюдавшиеся между сроками (за 1-3 часа до срока); квадратными скобками обозначены град или гололедные отложения с указанием их диаметра в мм.
Облачность - указаны через наклонную черту общая и нижняя облачность в баллах и высота нижней границы облаков в метрах; квадратными скобками обозначены формы облаков: Ci - перистые, Cs - перисто-слоистые, Cc - перисто-кучевые, Ac - высококучевые, As - высокослоистые, Sc - слоисто-кучевые, Ns - слоисто-дождевые, Cu - кучевые, Cb - кучево-дождевые. Подробнее классификацию облаков см. в Атласе облаков (PDF).
T - Температура воздуха - температура, измеренная на высоте 2 м над землей.
Td - Температура точки росы - температура, при понижении до которой содержащийся в воздухе водяной пар достигнет насыщения.
f - Относительная влажность воздуха - влажноcть воздуха, измеренная на высоте 2 м над землей.
Te - Эффективная температура - температура, которую ощущает одетый по сезону человек в тени. Характеристика душности погоды. При расчете учитывается влияние влажности воздуха и скорости ветра на теплоощущения человека.
Tes - Эффективная температура на солнце - температура, которую ощущает человек, с поправкой на солнечный нагрев. Характеристика знойности погоды. Зависит от высоты солнца над горизонтом, облачности и скорости ветра. Ночью, в пасмурную погоду, а также при ветре 12 м/с и более поправка равна нулю.
P - Атмосферное давление - приведенное к уровню моря атмосферное давление.
Po - Атмосферное давление - измеренное на уровне метеостанции атмосферное давление.
Tmin - Минимальная температура - минимум температуры воздуха на высоте 2 м над землей.
Tmax - Максимальная температура - максимум температуры воздуха на высоте 2 м над землей.
R - Количество осадков - Количество выпавших осадков за период времени, мм. При наведении курсора мыши на число - период времени, за который выпало указанное количество осадков.
R24 - Количество осадков - Количество выпавших осадков за 24 часа, мм.
S - Снежный покров - Высота снежного покрова, см. При наведении курсора мыши на число - состояние снежного покрова и степень покрытия местности в баллах.